Regional Weather Roundup
Issued by NWS

Home | Current Version | Previous Version | Text Only | Print | Product List | Glossary Off
Versions: 1 2 3 4 5 6 7 8 9 10 11 12 13 14 15 16 17 18 19 20 21 22 23 24 25 26 27 28 29 30 31 32 33 34 35 36 37 38 39 40 41 42 43 44 45 46 47 48 49 50

000
ASUS43 KIND 060509
RWRIN

WEATHER ROUNDUP FOR INDIANA
NATIONAL WEATHER SERVICE INDIANAPOLIS IN
1200 AM EST FRI MAR 06 2015

NOTE: "FAIR" INDICATES FEW OR NO CLOUDS BELOW 12,000 FEET WITH NO
SIGNIFICANT WEATHER AND/OR OBSTRUCTIONS TO VISIBILITY.

* - STATION DOES NOT REPORT WEATHER SUCH AS PRECIPITATION OR FOG.

+ - STATION NOT QUALITY CONTROLLED BY THE NATIONAL WEATHER SERVICE.
    USE DATA WITH CAUTION...ESPECIALLY DEWPOINT AND RELATIVE
    HUMIDITY OBSERVATIONS.

INZ001>003-010>013-019-020-060600-
NORTHWEST INDIANA

CITY           SKY/WX    TMP DP  RH WIND       PRES   REMARKS
GARY /AIRPORT/ PTCLDY    12  -3  51 W6        30.56S WCI   2
KNOX *+          N/A      3 -13  47 SW6       30.54S WCI  -8
LA PORTE +     PTCLDY     8  -1  69 W6        30.53S WCI  -2
MICHIGAN CITY+ PTCLDY     9  -4  56 SW6       30.55R WCI  -1
MONTICELLO +   PTCLDY     2  -4  73 CALM      30.56S
RENSSELAER +   PTCLDY     3   0  85 SW5       30.56F WCI  -6
VALPARAISO     PTCLDY     6  -3  66 W7        30.54S WCI  -6

$$

LMZ046-743>745-060600-
SOUTHERN LAKE MICHIGAN

STATION/POSITION TIME  TEMP WIND        PRES
                       AIR  DIR/SP/G
                 (UTC) (F)  (DEG/KT/KT) (MB)
MICHIGAN CITY    0500    9  190/ 11/ 11   N/A

$$

INZ004-005-014>016-021>024-060600-
NORTH CENTRAL INDIANA

CITY           SKY/WX    TMP DP  RH WIND       PRES   REMARKS
GOSHEN         MOCLDY     2  -3  80 CALM      30.50F
LOGANSPORT +   PTCLDY     1  -4  78 SW6       30.56S WCI -10
PERU/GRISSOM   PTCLDY     3  -4  74 W8        30.53R WCI -11
ROCHESTER +    PTCLDY    10   1  67 W5        30.54R WCI   2
SOUTH BEND     MOCLDY     7   0  73 SW7       30.52F WCI  -5
WARSAW +       PTCLDY     3   1  92 CALM      30.52S

$$

INZ006>009-017-018-025>027-060600-
NORTHEAST INDIANA

CITY           SKY/WX    TMP DP  RH WIND       PRES   REMARKS
ANGOLA *+      CLEAR      1   0  92 CALM      30.47F
AUBURN +       PTCLDY     9   3  78 CALM      30.51F
FORT WAYNE     PTCLDY     4  -2  76 S3        30.53F
HUNTINGTON +   PTCLDY     5  -3  70 SW3       30.52S

$$

INZ028-029-035-036-043>045-051>053-060600-
WEST CENTRAL INDIANA

CITY           SKY/WX    TMP DP  RH WIND       PRES   REMARKS
CRAWFORDSVL +  MOCLDY     0  -8  69 CALM      30.55F
GREENCASTLE +  PTCLDY     9  -2  61 CALM      30.55F
LAFAYETTE      MOCLDY     2  -2  83 CALM      30.58S
TERRE HAUTE    MOCLDY     1  -3  83 CALM      30.59S

$$

INZ030>032-037>040-046>048-054>057-064-065-060600-
CENTRAL INDIANA

CITY           SKY/WX    TMP DP  RH WIND       PRES   REMARKS
CP ATTERBURY + MOCLDY    10   5  79 NW3       30.58R
FRANKFORT +    MOCLDY    -5  -8  86 SW6       30.57S WCI -18
GREENWOOD *+   PTCLDY    10  -2  56 NW3       30.56S
INDIANAPOLIS   MOCLDY     8  -1  66 NW5       30.55R WCI   0
-EAGLE CREEK   PTCLDY     8   0  69 NW5       30.55S WCI   0
KOKOMO *+        N/A    N/A N/A N/A MISG        N/A
MARION +       PTCLDY     2  -4  73 W3        30.54S
MT COMFORT *+  PTCLDY     1 -11  55 W3        30.55S
SHELBYVILLE    PTCLDY     8   3  80 NW3       30.55R
ZIONSVILLE +   PTCLDY     5  -2  73 W5        30.55S WCI  -4

$$

INZ033-034-041-042-049-050-058-059-060600-
EAST CENTRAL INDIANA

CITY           SKY/WX    TMP DP  RH WIND       PRES   REMARKS
MUNCIE         PTCLDY     9   4  80 W3        30.53S

$$

INZ060-061-067>069-081>083-085>088-060600-
SOUTHWEST INDIANA

CITY           SKY/WX    TMP DP  RH WIND       PRES   REMARKS
EVANSVILLE     PTCLDY    12   2  64 N3        30.62S
HUNTINGBURG *+ PTCLDY    10   0  61 N7        30.59F WCI   0
WASHINGTON +   PTCLDY     8  -1  67 CALM      30.60S

$$

INZ062-063-066-070>080-084-089>092-060600-
SOUTH CENTRAL AND SOUTHEAST INDIANA

CITY           SKY/WX    TMP DP  RH WIND       PRES   REMARKS
BEDFORD +      PTCLDY    12   3  67 CALM      30.57S
BLOOMINGTON    MOCLDY     8   2  76 CALM      30.56S
NORTH VERNON + PTCLDY    10  10 100 CALM      30.56S
SEYMOUR +      PTCLDY    16   5  62 N5        30.58S WCI   9

$$




USA.gov is the U.S. government's official web portal to all federal, state and local government web resources and services.